TimeBST,TemperatureF,Dew PointF,Humidity,Sea Level PressureIn,VisibilityMPH,Wind Direction,Wind SpeedMPH,Gust SpeedMPH,PrecipitationIn,Events,Conditions,WindDirDegrees,DateUTC
12:20 AM,59.0,55.4,88,30.24,-9999.0,SW,4.6,-,N/A,,Clear,230,2013-07-16 23:20:00
12:50 AM,59.0,55.4,88,30.24,-9999.0,Variable,2.3,-,N/A,,Clear,0,2013-07-16 23:50:00
1:20 AM,59.0,53.6,82,30.24,-9999.0,West,3.5,-,N/A,,Clear,280,2013-07-17 00:20:00
1:50 AM,57.2,53.6,88,30.24,-9999.0,Variable,3.5,-,N/A,,Clear,0,2013-07-17 00:50:00
2:20 AM,57.2,53.6,88,30.24,-9999.0,West,2.3,-,N/A,,Clear,270,2013-07-17 01:20:00
2:50 AM,55.4,53.6,94,30.27,6.2,WSW,2.3,-,N/A,,Unknown,240,2013-07-17 01:50:00
3:20 AM,55.4,53.6,94,30.27,6.2,Calm,Calm,-,N/A,,Unknown,0,2013-07-17 02:20:00
3:50 AM,55.4,53.6,94,30.27,6.2,Calm,Calm,-,N/A,,Unknown,0,2013-07-17 02:50:00
4:20 AM,57.2,55.4,94,30.27,-9999.0,Calm,Calm,-,N/A,,Clear,0,2013-07-17 03:20:00
4:50 AM,57.2,55.4,94,30.27,-9999.0,Calm,Calm,-,N/A,,Clear,0,2013-07-17 03:50:00
5:20 AM,57.2,55.4,94,30.27,-9999.0,Calm,Calm,-,N/A,,Clear,0,2013-07-17 04:20:00
5:50 AM,57.2,55.4,94,30.27,-9999.0,NNW,2.3,-,N/A,,Clear,330,2013-07-17 04:50:00
6:20 AM,59.0,55.4,88,30.27,-9999.0,Calm,Calm,-,N/A,,Clear,0,2013-07-17 05:20:00
6:50 AM,60.8,57.2,88,30.27,-9999.0,Variable,2.3,-,N/A,,Clear,0,2013-07-17 05:50:00
7:20 AM,62.6,57.2,82,30.27,-9999.0,WSW,4.6,-,N/A,,Clear,240,2013-07-17 06:20:00
7:50 AM,62.6,57.2,82,30.27,6.2,West,6.9,-,N/A,,Partly Cloudy,270,2013-07-17 06:50:00
8:20 AM,64.4,57.2,77,30.27,6.2,West,6.9,-,N/A,,Partly Cloudy,260,2013-07-17 07:20:00
8:50 AM,66.2,59.0,78,30.27,-9999.0,WSW,6.9,-,N/A,,Clear,250,2013-07-17 07:50:00
9:20 AM,68.0,59.0,73,30.27,-9999.0,WSW,9.2,-,N/A,,Clear,240,2013-07-17 08:20:00
9:50 AM,68.0,57.2,68,30.27,6.2,SW,11.5,-,N/A,,Partly Cloudy,230,2013-07-17 08:50:00
10:20 AM,69.8,57.2,64,30.27,6.2,SW,10.4,-,N/A,,Partly Cloudy,230,2013-07-17 09:20:00
10:50 AM,69.8,57.2,64,30.27,6.2,SW,10.4,-,N/A,,Scattered Clouds,230,2013-07-17 09:50:00
11:20 AM,69.8,55.4,60,30.30,6.2,West,10.4,-,N/A,,Scattered Clouds,270,2013-07-17 10:20:00
11:50 AM,73.4,55.4,53,30.30,6.2,West,11.5,-,N/A,,Scattered Clouds,260,2013-07-17 10:50:00
12:20 PM,71.6,55.4,57,30.30,6.2,WSW,12.7,-,N/A,,Scattered Clouds,250,2013-07-17 11:20:00
12:50 PM,71.6,55.4,57,30.30,6.2,WSW,12.7,-,N/A,,Partly Cloudy,250,2013-07-17 11:50:00
1:20 PM,73.4,55.4,53,30.30,6.2,West,11.5,-,N/A,,Partly Cloudy,260,2013-07-17 12:20:00
1:50 PM,73.4,55.4,53,30.30,6.2,West,10.4,-,N/A,,Partly Cloudy,260,2013-07-17 12:50:00
2:20 PM,73.4,55.4,53,30.30,6.2,West,12.7,-,N/A,,Partly Cloudy,270,2013-07-17 13:20:00
2:50 PM,73.4,55.4,53,30.30,6.2,West,11.5,-,N/A,,Partly Cloudy,280,2013-07-17 13:50:00
3:20 PM,73.4,55.4,53,30.30,6.2,West,12.7,-,N/A,,Partly Cloudy,270,2013-07-17 14:20:00
3:50 PM,73.4,55.4,53,30.30,6.2,West,12.7,-,N/A,,Partly Cloudy,270,2013-07-17 14:50:00
4:20 PM,71.6,53.6,53,30.30,6.2,West,12.7,-,N/A,,Partly Cloudy,270,2013-07-17 15:20:00
4:50 PM,71.6,55.4,57,30.30,6.2,West,10.4,-,N/A,,Partly Cloudy,260,2013-07-17 15:50:00
5:20 PM,71.6,57.2,60,30.30,6.2,West,10.4,-,N/A,,Partly Cloudy,260,2013-07-17 16:20:00
5:50 PM,71.6,57.2,60,30.30,6.2,West,10.4,-,N/A,,Partly Cloudy,260,2013-07-17 16:50:00
6:20 PM,71.6,57.2,60,30.30,6.2,West,8.1,-,N/A,,Scattered Clouds,260,2013-07-17 17:20:00
6:50 PM,71.6,57.2,60,30.30,6.2,WNW,8.1,-,N/A,,Scattered Clouds,300,2013-07-17 17:50:00
7:20 PM,69.8,57.2,64,30.30,6.2,WNW,9.2,-,N/A,,Scattered Clouds,300,2013-07-17 18:20:00
7:50 PM,71.6,57.2,60,30.30,6.2,NW,8.1,-,N/A,,Scattered Clouds,310,2013-07-17 18:50:00
8:20 PM,69.8,57.2,64,30.30,6.2,NW,6.9,-,N/A,,Partly Cloudy,310,2013-07-17 19:20:00
8:50 PM,69.8,57.2,64,30.30,6.2,WNW,6.9,-,N/A,,Partly Cloudy,300,2013-07-17 19:50:00
9:20 PM,68.0,57.2,68,30.33,-9999.0,WNW,6.9,-,N/A,,Clear,300,2013-07-17 20:20:00
9:50 PM,64.4,57.2,77,30.33,6.2,West,5.8,-,N/A,,Partly Cloudy,260,2013-07-17 20:50:00
10:20 PM,64.4,57.2,77,30.33,-9999.0,West,5.8,-,N/A,,Clear,270,2013-07-17 21:20:00
10:50 PM,62.6,59.0,88,30.33,6.2,WSW,5.8,-,N/A,,Scattered Clouds,250,2013-07-17 21:50:00
11:20 PM,64.4,59.0,83,30.33,6.2,West,5.8,-,N/A,,Mostly Cloudy,260,2013-07-17 22:20:00
11:50 PM,60.8,57.2,88,30.33,6.2,Variable,2.3,-,N/A,,Partly Cloudy,0,2013-07-17 22:50:00